This demonstration page uses our WeatherBlox Daily Observations layout. Learn more.

Left ArrowRight Arrow

39.12711, -84.51439

Hourly Observations for July 12, 2018

Temp ( °F °C ) Dew Point ( °F °C ) Humidity (%) Winds ( mph kmh ) Pressure ( in mb ) Visibility ( mi km ) Precip ( " mm )
12:53 am 00:53 Clear 66 18.9 61 16.1 84 84 NE 5 7 30.14 1021 10 16 0.00 0.00
1:53 am 01:53 Clear 68 20 59 15 73 73 NNE 5 7 30.14 1021 10 16 0.00 0.00
2:53 am 02:53 Clear 65 18.3 61 16.1 87 87 Calm 30.14 1021 10 16 0.00 0.00
3:53 am 03:53 Clear 61 16.1 60 15.6 97 97 Calm 30.15 1021 10 16 0.00 0.00
4:53 am 04:53 Clear 62 16.7 60 15.6 93 93 Calm 30.14 1021 9 14 0.00 0.00
5:53 am 05:53 Clear 60 15.6 59 15 96 96 Calm 30.14 1021 10 16 0.00 0.00
6:53 am 06:53 Sunny 59 15 59 15 100 100 Calm 30.15 1021 10 16 0.00 0.00
7:53 am 07:53 Sunny 65 18.3 62 16.7 90 90 Calm 30.16 1021 10 16 0.00 0.00
8:53 am 08:53 Sunny 71 21.7 61 16.1 71 71 NNE 3 6 30.18 1022 10 16 0.00 0.00
9:53 am 09:53 Sunny 75 23.9 60 15.6 60 60 NE 7 11 30.19 1023 10 16 0.00 0.00
10:53 am 10:53 Sunny 78 25.6 59 15 52 52 NE 8 13 30.19 1022 10 16 0.00 0.00
11:53 am 11:53 Sunny 80 26.7 58 14.4 47 47 NE 6 9 30.19 1022 10 16 0.00 0.00
12:53 pm 12:53 Sunny 83 28.3 57 13.9 41 41 NE 12 19 30.18 1022 10 16 0.00 0.00
1:53 pm 13:53 Sunny 84 28.9 55 12.8 37 37 NE 10 17 30.18 1022 10 16 0.00 0.00
2:53 pm 14:53 Sunny 85 29.4 55 12.8 36 36 ENE 10 17 30.16 1021 10 16 0.00 0.00
3:53 pm 15:53 Sunny 85 29.4 55 12.8 36 36 ENE 9 15 30.14 1021 10 16 0.00 0.00
4:53 pm 16:53 Sunny 85 29.4 54 12.2 35 35 NE 8 13 30.14 1021 10 16 0.00 0.00
5:53 pm 17:53 Sunny 85 29.4 57 13.9 39 39 NNE 8 13 30.14 1021 10 16 0.00 0.00
6:53 pm 18:53 Sunny 84 28.9 57 13.9 40 40 NE 8 13 30.13 1020 10 16 0.00 0.00
7:53 pm 19:53 Sunny 81 27.2 60 15.6 49 49 NE 6 9 30.13 1020 10 16 0.00 0.00
8:53 pm 20:53 Sunny 75 23.9 65 18.3 71 71 Calm 30.12 1020 10 16 0.00 0.00
9:53 pm 21:53 Clear 70 21.1 63 17.2 79 79 Calm 30.13 1020 10 16 0.00 0.00
10:53 pm 22:53 Clear 67 19.4 63 17.2 87 87 Calm 30.14 1021 10 16 0.00 0.00
11:53 pm 23:53 Clear 66 18.9 62 16.7 87 87 Calm 30.14 1021 10 16 0.00 0.00

Powered by AerisWeather